Tracking 19717 objects as of 25-Jun-2019
HD Live streaming from Space Station
objects crossing your sky now

TITAN 3C TRANSTAGE DEB

Track TITAN 3C TRANSTAGE DEB now!
10-day predictions


NORAD ID: 26049
Int'l Code: 1965-108AH
Perigee: 529.1 km
Apogee: 13,534.7 km
Inclination: 27.2 °
Period: 257.4 minutes
Semi major axis: 13402 km
RCS: 0.0672 m2 (small)
Launch date: December 21, 1965
Source: United States (US)
Launch site: AIR FORCE EASTERN TEST RANGE (AFETR)

Note: This is SATELLITE DEBRIS
aabbcc
Your satellite tracking list
Your tracking list is empty




NASA's NSSDC Master Catalog

Two Line Element Set (TLE):
1 26049U 65108AH  19175.40335709 -.00000074  00000-0 -69317-4 0  9998
2 26049  27.1703 258.1934 4851808  13.9995 355.7493  5.59506925400315
Source of the keplerian elements: AFSPC